ATLAS 5 CENTAUR DEB, 44661

Orbit data source: Space-Track

ATLAS 5 CENTAUR DEB, 44661 is space debris in HEO originally from a launch on Wed, 17 Oct 2018 UTC launched from the Air Force Eastern Test Range (AFETR). Debris objects in space refer to the collection of defunct objects orbiting the Earth. Examples of debris include non-operational satellites, rocket bodies, and fragments generated from explosions, collisions, or faulty payload assembly.

Loading next visibility...
Identifier
44661, 2018-079X
Orbit
HEO
Country
Flag of USUS
Related business
Flag of USUnited Launch Alliance/Lockheed Martin (US)
Manufacturer
ULA Decatur
Mission
Spacecraft
Bus & Motor
Unknown
Mass
Unknown
Launch date (UTC)
2018-10-17 (8 years ago)
Launch vehicle
Unknown
Launch site
Air Force Eastern Test Range (AFETR)
Object type
Payload
Rocket body
Debris
Shape & HBR
Unknown shape, 1.1 m
Radar Cross Section
RCS unknown

Expand to show TLE details & history
Last TLE update: 23 hours ago

TLE from 23 hours ago
0 ATLAS 5 CENTAUR DEB
1 44661U 18079X   26127.24881099 -.00000067  00000-0  00000-0 0  9999
2 44661  12.9764  64.6845 4628228 253.1702  52.5095  1.72653354 47897
Epoch: 2026-05-07T05:58Z
TLE epoch observation values (Epoch: 2026-05-07T05:58:17.269Z)
Latitude
Longitude
109.9159°
Altitude
20,259.746 km
Speed
4.043 km/s
True Right ascension
04h 18m 20s
True Declination
0° 00' 00"
Sunlit
Object was in daylight at epoch
Visualization orbit readout
Latitude
Unknown
Longitude
Unknown
Altitude
Unknown
Speed
Unknown
Apparent Right ascension
Unknown
Apparent Declination
Unknown
Sunlit
N/A
Visualization observer readout
Local Sidereal Time
12:53:32
Azimuth
Unknown
Elevation
Unknown
Doppler factor
Unknown
Orbital elements
Apogee altitude
36,559.679 km
Perigee altitude
9,389.47 km
Semi-major axis
29,352.711 km
Eccentricity
0.46282
Inclination
12.9764°
RAAN
64.6845°
Arg. of periapsis
253.1702°
True anomaly
106.86661°
Mean anomaly
52.5095°
Eccentric anomaly
78.49443°
Mean motion
0.43159 °/min
Orbital period
834.13 mins
BSTAR
0
Loading maneuver chart data...
Computing Atmospheric mass density...

Documentation

Showing up to 5 results
|